Flag for U.S.A. Weather past 2 weeks in Huntsville, Alabama, U.S.A.

Now
81 °F

Partly sunny.


Feels Like: 80 °F
Forecast: 59 / 80 °F
Wind: 8 mph from North

Location: Huntsville International / Jones Field

Current Time: Sep 17, 2014 at 5:41:58 PM

Latest Report: Sep 17, 2014 at 4:53 PM


Visibility: 10 mi

Pressure: 29.93 "Hg

Humidity: 33%

Dew point: 49 °F

Location of HuntsvilleLocation

Historic Weather in Huntsville — Graph

°F

Huntsville temperature yesterday

Maximum temperature yesterday: 91 °F (at 2:53 PM)
Minimum temperature yesterday: 68 °F (at 6:53 AM)
Average temperature yesterday: 78 °F

Past Weeks' High & Low Weather Summary

 TemperatureHumidityPressure
High93 °F (Sep 11, 2:02 PM)93% (Sep 6, 6:53 AM)30.21 "Hg (Sep 6, 6:53 AM)
Low60 °F (Sep 14, 4:53 AM)32% (Sep 17, 2:53 PM)29.89 "Hg (Sep 10, 6:53 PM)
Average78 °F73%30.04 "Hg
* Reported Sep 2 3:53 PM — Sep 17 3:53 PM, Huntsville, Weather by CustomWeather, © 2014

Note: Actual official high and low records may vary slightly from our data, if they occured in-between our weather recording intervals... More about our weather records

Advertising

Huntsville weather history for previous 24 hours

 ConditionsComfort  
Time TempWeatherWind HumidityBarometerVisibility
3:53 PM
Sep 17
83 °FPartly sunny.5 mph32%29.93 "Hg10 mi
2:53 PM83 °FPartly sunny.7 mph32%29.94 "Hg10 mi
1:53 PM83 °FPartly sunny.9 mph34%29.95 "Hg10 mi
12:53 PM79 °FPartly sunny.3 mph38%29.97 "Hg10 mi
11:53 AM79 °FPartly sunny.7 mph42%29.98 "Hg10 mi
10:53 AM77 °FScattered clouds.7 mph48%29.99 "Hg10 mi
9:53 AM75 °FPassing clouds.7 mph54%29.98 "Hg10 mi
8:53 AM72 °FPassing clouds.3 mph64%29.98 "Hg9 mi
7:53 AM69 °FHaze.3 mph73%29.99 "Hg6 mi
6:53 AM66 °FOvercast.5 mph84%29.99 "Hg5 mi
5:53 AM65 °FFog.5 mph91%29.99 "Hg5 mi
4:53 AM65 °FFog.No wind87%29.98 "Hg4 mi
3:53 AM64 °FFog.No wind90%29.98 "Hg4 mi
2:53 AM65 °FFog.5 mph87%29.99 "Hg4 mi
1:53 AM66 °FFog.3 mph90%30.00 "Hg5 mi
12:53 AM67 °FFog.No wind87%30.01 "Hg5 mi
11:53 PM
Sep 16
68 °FClear.5 mph87%30.01 "Hg7 mi
10:53 PM69 °FClear.3 mph84%30.02 "Hg9 mi
9:53 PM71 °FPassing clouds.5 mph81%30.03 "Hg10 mi
8:53 PM73 °FPassing clouds.9 mph79%30.01 "Hg10 mi
7:53 PM76 °FPassing clouds.9 mph74%30.00 "Hg10 mi
6:53 PM79 °FPassing clouds.9 mph67%29.98 "Hg10 mi
5:53 PM83 °FPassing clouds.8 mph61%29.98 "Hg10 mi
Weather by CustomWeather, © 2014

See weather overviewHow to use our weather pages